FW5374 Weather Reports


Display with metric or nautical units.
time (UTC)temp
F
wind
direction
speed
MPH
gust
MPH
rain 1hr
in
rain 24hr
in
rain mn
in
humidity
%
barometer
mb
20220625052404 59 206 3.0 3.0 0.00 0.00 0.00 75 987.6
20220625051904 59 206 2.0 3.0 0.00 0.00 0.00 74 987.5
20220625050904 60 207 2.0 3.0 0.00 0.00 0.00 73 987.6
20220625050403 60 207 1.0 3.0 0.00 0.00 0.00 73 987.5
20220625045903 60 207 2.0 3.0 0.00 0.00 0.00 72 987.5
20220625045404 60 207 3.0 5.0 0.00 0.00 0.00 73 987.6
20220625044904 60 211 3.0 5.0 0.00 0.00 0.00 72 987.5
20220625043904 61 187 3.0 5.0 0.00 0.00 0.00 70 987.4
20220625041904 63 200 2.0 3.0 0.00 0.00 0.00 68 987.1
20220625041404 63 199 4.0 6.0 0.00 0.00 0.00 67 986.9
20220625040404 64 200 3.0 5.0 0.00 0.00 0.00 65 986.8
20220625035903 64 186 2.0 5.0 0.00 0.00 0.00 64 986.6
20220625035404 65 200 3.0 3.0 0.00 0.00 0.00 63 986.6
20220625034403 66 209 5.0 5.0 0.00 0.00 0.00 58 986.4
20220625033904 67 233 3.0 5.0 0.00 0.00 0.00 58 986.4
20220625031904 70 288 1.0 2.0 0.00 0.00 0.00 52 986.3
20220625030904 72 293 1.0 3.0 0.00 0.00 0.00 49 986.2
20220625030404 73 300 1.0 3.0 0.00 0.00 0.00 46 986.2
20220625025904 74 303 2.0 3.0 0.00 0.00 0.00 45 986.1
20220625025404 75 325 1.0 3.0 0.00 0.00 0.00 44 986.1
20220625024404 76 326 1.0 2.0 0.00 0.00 0.00 44 986.0
20220625023904 76 326 1.0 3.0 0.00 0.00 0.00 43 986.0
20220625021904 77 296 1.0 3.0 0.00 0.00 0.00 41 985.9
20220625020904 78 314 2.0 3.0 0.00 0.00 0.00 39 985.9
20220625015904 78 312 2.0 3.0 0.00 0.00 0.00 38 985.8
20220625014904 78 345 2.0 6.0 0.00 0.00 0.00 38 985.7
20220625014404 78 311 2.0 5.0 0.00 0.00 0.00 38 985.7
20220625013903 78 5 2.0 5.0 0.00 0.00 0.00 37 985.7
20220625013404 77 351 3.0 7.0 0.00 0.00 0.00 37 985.7
20220625012404 78 2 5.0 12.0 0.00 0.00 0.00 37 985.6
20220625011904 78 32 3.0 3.0 0.00 0.00 0.00 36 985.6
20220625005904 78 341 3.0 9.0 0.00 0.00 0.00 36 985.5
20220625004404 78 12 4.0 10.0 0.00 0.00 0.00 35 985.4
20220625003404 78 356 6.0 12.0 0.00 0.00 0.00 34 985.3
20220625002904 78 23 5.0 12.0 0.00 0.00 0.00 34 985.2
20220625001904 78 6 6.0 9.0 0.00 0.00 0.00 35 985.2
20220625001404 77 14 6.0 12.0 0.00 0.00 0.00 35 985.2
20220625000904 78 329 6.0 12.0 0.00 0.00 0.00 34 985.2
20220625000404 78 8 6.0 12.0 0.00 0.00 0.00 34 985.2
20220624235904 78 8 6.0 12.0 0.00 0.00 0.00 33 985.2
20220624234904 79 359 5.0 8.0 0.00 0.00 0.00 32 985.2
20220624234404 79 45 5.0 12.0 0.00 0.00 0.00 32 985.1
20220624232404 79 345 5.0 12.0 0.00 0.00 0.00 32 985.2
20220624230904 79 0 7.0 12.0 0.00 0.00 0.00 31 985.1
20220624225904 79 15 5.0 12.0 0.00 0.00 0.00 31 985.2
20220624224404 79 345 4.0 8.0 0.00 0.00 0.00 28 985.3
20220624223904 79 345 4.0 10.0 0.00 0.00 0.00 29 985.3
20220624222904 80 314 3.0 13.0 0.00 0.00 0.00 31 985.3
20220624221904 79 11 4.0 9.0 0.00 0.00 0.00 30 985.3
20220624220404 79 337 5.0 14.0 0.00 0.00 0.00 29 985.4
20220624215904 80 348 6.0 14.0 0.00 0.00 0.00 28 985.4
20220624211403 78 327 3.0 8.0 0.00 0.00 0.00 29 985.5
20220624210404 78 268 5.0 12.0 0.00 0.00 0.00 29 985.6
20220624203904 77 305 6.0 12.0 0.00 0.00 0.00 30 985.5
20220624203403 77 265 7.0 13.0 0.00 0.00 0.00 30 985.5
20220624202904 77 7 4.0 10.0 0.00 0.00 0.00 30 985.4
20220624202404 77 336 5.0 9.0 0.00 0.00 0.00 31 985.4
20220624201904 77 331 4.0 12.0 0.00 0.00 0.00 31 985.5
20220624195404 76 270 4.0 8.0 0.00 0.00 0.00 33 985.3
20220624191904 76 278 4.0 14.0 0.00 0.00 0.00 31 985.3
20220624185904 75 351 2.0 9.0 0.00 0.00 0.00 33 985.2
20220624185404 74 309 2.0 12.0 0.00 0.00 0.00 34 985.1
20220624184904 74 226 3.0 12.0 0.00 0.00 0.00 36 985.2
20220624183404 74 313 7.0 14.0 0.00 0.00 0.00 37 985.1
20220624182903 74 230 7.0 14.0 0.00 0.00 0.00 38 985.0
20220624181903 73 339 6.0 12.0 0.00 0.00 0.00 36 984.9
20220624181404 74 267 4.0 10.0 0.00 0.00 0.00 39 984.9
20220624180404 73 337 5.0 12.0 0.00 0.00 0.00 35 984.9
20220624175904 73 322 6.0 12.0 0.00 0.00 0.00 36 984.8
20220624175404 73 254 5.0 10.0 0.00 0.00 0.00 37 984.8
20220624174904 73 298 5.0 10.0 0.00 0.00 0.00 36 984.7
20220624174404 72 208 3.0 9.0 0.00 0.00 0.00 38 984.7
20220624173904 72 278 8.0 14.0 0.00 0.00 0.00 37 984.7
20220624172404 72 177 7.0 12.0 0.00 0.00 0.00 35 984.8
20220624171904 72 229 5.0 12.0 0.00 0.00 0.00 35 984.7
20220624171405 72 217 4.0 9.0 0.00 0.00 0.00 39 984.7
20220624170904 71 355 5.0 9.0 0.00 0.00 0.00 38 984.7
20220624170404 71 331 1.0 5.0 0.00 0.00 0.00 44 984.6
20220624165903 70 307 4.0 8.0 0.00 0.00 0.00 45 984.6
20220624165404 70 351 2.0 5.0 0.00 0.00 0.00 47 984.6
20220624164404 69 15 2.0 5.0 0.00 0.00 0.00 56 984.6
20220624163404 69 352 2.0 5.0 0.00 0.00 0.00 57 984.5
20220624160404 66 121 1.0 3.0 0.00 0.00 0.00 62 984.6
20220624155904 65 330 1.0 2.0 0.00 0.00 0.00 62 984.6
20220624155403 65 339 0.0 2.0 0.00 0.00 0.00 63 984.6
20220624153904 63 311 2.0 5.0 0.00 0.00 0.00 65 984.4
20220624152404 61 113 2.0 6.0 0.00 0.00 0.00 68 984.3
20220624150904 58 44 1.0 3.0 0.00 0.00 0.00 75 984.4
20220624150403 57 48 1.0 3.0 0.00 0.00 0.00 76 984.3
20220624144904 55 38 1.0 3.0 0.00 0.00 0.00 81 984.2
20220624144404 54 38 1.0 3.0 0.00 0.00 0.00 81 984.1
20220624142905 54 355 2.0 3.0 0.00 0.00 0.00 82 984.0
20220624142404 54 26 0.0 3.0 0.00 0.00 0.00 83 983.8
20220624141904 53 24 2.0 3.0 0.00 0.00 0.00 83 983.8
20220624141404 53 61 0.0 2.0 0.00 0.00 0.00 84 983.8
20220624140904 52 65 1.0 2.0 0.00 0.00 0.00 84 983.7
20220624132404 49 22 2.0 3.0 0.00 0.00 0.00 88 983.4
20220624131904 49 23 2.0 3.0 0.00 0.00 0.00 87 983.3
20220624131404 49 49 2.0 6.0 0.00 0.00 0.00 87 983.2
20220624124904 48 211 2.0 3.0 0.00 0.00 0.00 88 982.8
20220624124404 48 211 1.0 3.0 0.00 0.00 0.00 89 982.9
20220624123904 48 211 3.0 3.0 0.00 0.00 0.00 90 982.7
20220624123404 47 207 3.0 5.0 0.00 0.00 0.00 90 982.6
20220624122904 47 213 5.0 7.0 0.00 0.00 0.00 90 982.7
20220624122403 47 189 5.0 6.0 0.00 0.00 0.00 90 982.6
20220624115404 47 198 2.0 3.0 0.00 0.00 0.00 90 981.9
20220624114904 47 198 3.0 3.0 0.00 0.00 0.00 90 981.8
20220624114404 47 198 1.0 3.0 0.00 0.00 0.00 90 981.7
20220624113404 47 198 1.0 2.0 0.00 0.00 0.00 89 981.4
20220624112904 47 198 1.0 2.0 0.00 0.00 0.00 88 981.4
20220624112404 47 198 0.0 1.0 0.00 0.00 0.00 88 981.3
20220624111404 48 198 0.0 1.0 0.00 0.00 0.00 88 981.1
20220624110903 48 198 0.0 1.0 0.00 0.00 0.00 88 980.9
20220624105404 48 198 0.0 2.0 0.00 0.00 0.00 88 980.8
20220624104404 49 198 1.0 3.0 0.00 0.00 0.00 88 980.7
20220624103404 49 198 2.0 3.0 0.00 0.00 0.00 89 980.7
20220624102404 49 198 0.0 1.0 0.00 0.00 0.00 87 980.6
20220624100404 49 198 1.0 2.0 0.00 0.00 0.00 87 980.7
20220624095904 49 198 1.0 3.0 0.00 0.00 0.00 87 980.5
20220624094404 49 198 0.0 1.0 0.00 0.00 0.00 86 980.6
20220624093904 50 198 2.0 3.0 0.00 0.00 0.00 86 980.6
20220624093404 50 198 1.0 2.0 0.00 0.00 0.00 87 980.5
20220624092904 50 198 2.0 3.0 0.00 0.00 0.00 87 980.5
20220624092404 50 198 0.0 0.0 0.00 0.00 0.00 85 980.6
20220624091404 51 198 0.0 0.0 0.00 0.00 0.00 85 980.6
20220624084904 52 198 0.0 1.0 0.00 0.00 0.00 84 980.5
20220624084404 52 198 0.0 2.0 0.00 0.00 0.00 84 980.5
20220624081904 52 190 3.0 3.0 0.00 0.00 0.00 83 980.3
20220624081404 53 193 1.0 3.0 0.00 0.00 0.00 83 980.4
20220624080904 53 193 1.0 16.0 0.00 0.00 0.00 84 980.4
20220624074404 53 187 2.0 3.0 0.00 0.00 0.00 83 980.2
20220624073403 53 186 1.0 2.0 0.00 0.00 0.00 82 980.2
20220624072404 54 186 2.0 2.0 0.00 0.00 0.00 82 980.1
20220624070904 54 186 0.0 1.0 0.00 0.00 0.00 81 980.1
20220624070404 55 186 0.0 1.0 0.00 0.00 0.00 81 980.1
20220624064904 55 187 2.0 3.0 0.00 0.00 0.00 81 980.0
20220624063904 55 190 1.0 2.0 0.00 0.00 0.00 80 980.0
20220624061405 56 190 0.0 0.0 0.00 0.00 0.00 78 979.9
20220624055404 57 190 3.0 3.0 0.00 0.00 0.00 77 979.8
20220624054904 57 195 2.0 3.0 0.00 0.00 0.00 76 979.8
20220624053404 58 195 1.0 2.0 0.00 0.00 0.00 77 979.9